Location: Arbon
(43.0005°N, 0.7472°E)
Time: 05:33:51
(UTC+00:00)

Vanguard 2 Rocket - Pass Details

Date: 27 June 2021
Orbit: 554 x 3325 km, 32.9° (Epoch: 26 July)

Event Time Altitude Azimuth Distance (km) Brightness Sun altitude
Rises 22:56:44 0° 280° (W) 7,247 11.8 -22.1°
Reaches altitude 10° 23:02:48 10° 271° (W) 6,026 11.2 -22.4°
Maximum altitude 23:16:41 29° 221° (SW) 3,784 9.7 -23.0°
Enters shadow 23:20:21 26° 198° (SSW) 3,654 9.4 -23.1°
